FLOCK 4V-15 (46528 NORAD) Tracking and Keplerian Element Data

This shows tracking and keplerian element data for the satellite.

Feedback or suggestion? Click here.




ElementValue
Catalog46528
NameFLOCK 4V-15
Epoch Orbit997
Epoch Day336.91858082
Epoch Year2020
RAAN48.4762
Inclination97.4585
Eccentricity0.0002042
Argument of Perigee337.0786
Mean Anonmoly23.0355
Mean Motion15.16164531
Decay Rate1.838E-05
L11 46528U 20061BE 20336.91858082 .00001838 00000-0 98717-4 0 9995
L22 46528 97.4585 48.4762 0002042 337.0786 23.0355 15.16164531 9974

Live tracking and technical data element details for FLOCK 4V-15 (NORAD 46528). FLOCK 4V-15 can be tracked NOW for your location showing map with azimuth and elevation plus other details from your city location.

Track the satellite on the map from your city or location and see movement details for azimuth, elevation, latitude, longitude, range, height, and movement on the map or in text.







IsCatalogInMostPopularTable: catalog: 46528, numindb: 22
Update: records affected: 1



GetName: 46528 FLOCK 4V-15

Hit Count: updated at: Thu, 03 Dec 2020 07:45:45 GMT